Year,Month,Day,Hour,Minute,Value (Times are PST for insolation in W/m^2)
2016,07,01,00,00,0.00
2016,07,01,00,01,0.00
2016,07,01,00,02,0.00
2016,07,01,00,03,0.00
2016,07,01,00,04,0.00
2016,07,01,00,05,0.00
2016,07,01,00,06,0.00
2016,07,01,00,07,0.00
2016,07,01,00,08,0.00
2016,07,01,00,09,0.00
2016,07,01,00,10,0.00
2016,07,01,00,11,0.00
2016,07,01,00,12,0.00
2016,07,01,00,13,0.00
2016,07,01,00,14,0.00
2016,07,01,00,15,0.00
2016,07,01,00,16,0.00
2016,07,01,00,17,0.00
2016,07,01,00,18,0.00
2016,07,01,00,19,0.00
2016,07,01,00,20,0.00
2016,07,01,00,21,0.00
2016,07,01,00,22,0.00
2016,07,01,00,23,0.00
2016,07,01,00,24,0.00
2016,07,01,00,25,0.00
2016,07,01,00,26,0.00
2016,07,01,00,27,0.00
2016,07,01,00,28,0.00
2016,07,01,00,29,0.00
2016,07,01,00,30,0.00
2016,07,01,00,31,0.00
2016,07,01,00,32,0.00
2016,07,01,00,33,0.00
2016,07,01,00,34,0.00
2016,07,01,00,35,0.00
2016,07,01,00,36,0.00
2016,07,01,00,37,0.00
2016,07,01,00,38,0.00
2016,07,01,00,39,0.00
2016,07,01,00,40,0.00
2016,07,01,00,41,0.00
2016,07,01,00,42,0.00
2016,07,01,00,43,0.00
2016,07,01,00,44,0.00
2016,07,01,00,45,0.00
2016,07,01,00,46,0.00
2016,07,01,00,47,0.00
2016,07,01,00,48,0.00
2016,07,01,00,49,0.00
2016,07,01,00,50,0.00
2016,07,01,00,51,0.00
2016,07,01,00,52,0.00
2016,07,01,00,53,0.00
2016,07,01,00,54,0.00
2016,07,01,00,55,0.00
2016,07,01,00,56,0.00
2016,07,01,00,57,0.00
2016,07,01,00,58,0.00
2016,07,01,00,59,0.00
2016,07,01,01,00,0.00
2016,07,01,01,01,0.00
2016,07,01,01,02,0.00
2016,07,01,01,03,0.00
2016,07,01,01,04,0.00
2016,07,01,01,05,0.00
2016,07,01,01,06,0.00
2016,07,01,01,07,0.00
2016,07,01,01,08,0.00
2016,07,01,01,09,0.00
2016,07,01,01,10,0.00
2016,07,01,01,11,0.00
2016,07,01,01,12,0.00
2016,07,01,01,13,0.00
2016,07,01,01,14,0.00
2016,07,01,01,15,0.00
2016,07,01,01,16,0.00
2016,07,01,01,17,0.00
2016,07,01,01,18,0.00
2016,07,01,01,19,0.00
2016,07,01,01,20,0.00
2016,07,01,01,21,0.00
2016,07,01,01,22,0.00
2016,07,01,01,23,0.00
2016,07,01,01,24,0.00
2016,07,01,01,25,0.00
2016,07,01,01,26,0.00
2016,07,01,01,27,0.00
2016,07,01,01,28,0.00
2016,07,01,01,29,0.00
2016,07,01,01,30,0.00
2016,07,01,01,31,0.00
2016,07,01,01,32,0.00
2016,07,01,01,33,0.00
2016,07,01,01,34,0.00
2016,07,01,01,35,0.00
2016,07,01,01,36,0.00
2016,07,01,01,37,0.00
2016,07,01,01,38,0.00
2016,07,01,01,39,0.00
2016,07,01,01,40,0.00
2016,07,01,01,41,0.00
2016,07,01,01,42,0.00
2016,07,01,01,43,0.00
2016,07,01,01,44,0.00
2016,07,01,01,45,0.00
2016,07,01,01,46,0.00
2016,07,01,01,47,0.00
2016,07,01,01,48,0.00
2016,07,01,01,49,0.00
2016,07,01,01,50,0.00
2016,07,01,01,51,0.00
2016,07,01,01,52,0.00
2016,07,01,01,53,0.00
2016,07,01,01,54,0.00
2016,07,01,01,55,0.00
2016,07,01,01,56,0.00
2016,07,01,01,57,0.00
2016,07,01,01,58,0.00
2016,07,01,01,59,0.00
2016,07,01,02,00,0.00
2016,07,01,02,01,0.00
2016,07,01,02,02,0.00
2016,07,01,02,03,0.00
2016,07,01,02,04,0.00
2016,07,01,02,05,0.00
2016,07,01,02,06,0.00
2016,07,01,02,07,0.00
2016,07,01,02,08,0.00
2016,07,01,02,09,0.00
2016,07,01,02,10,0.00
2016,07,01,02,11,0.00
2016,07,01,02,12,0.00
2016,07,01,02,13,0.00
2016,07,01,02,14,0.00
2016,07,01,02,15,0.00
2016,07,01,02,16,0.00
2016,07,01,02,17,0.00
2016,07,01,02,18,0.00
2016,07,01,02,19,0.00
2016,07,01,02,20,0.00
2016,07,01,02,21,0.00
2016,07,01,02,22,0.00
2016,07,01,02,23,0.00
2016,07,01,02,24,0.00
2016,07,01,02,25,0.00
2016,07,01,02,26,0.00
2016,07,01,02,27,0.00
2016,07,01,02,28,0.00
2016,07,01,02,29,0.00
2016,07,01,02,30,0.00
2016,07,01,02,31,0.00
2016,07,01,02,32,0.00
2016,07,01,02,33,0.00
2016,07,01,02,34,0.00
2016,07,01,02,35,0.00
2016,07,01,02,36,0.00
2016,07,01,02,37,0.00
2016,07,01,02,38,0.00
2016,07,01,02,39,0.00
2016,07,01,02,40,0.00
2016,07,01,02,41,0.00
2016,07,01,02,42,0.00
2016,07,01,02,43,0.00
2016,07,01,02,44,0.00
2016,07,01,02,45,0.00
2016,07,01,02,46,0.00
2016,07,01,02,47,0.00
2016,07,01,02,48,0.00
2016,07,01,02,49,0.00
2016,07,01,02,50,0.00
2016,07,01,02,51,0.00
2016,07,01,02,52,0.00
2016,07,01,02,53,0.00
2016,07,01,02,54,0.00
2016,07,01,02,55,0.00
2016,07,01,02,56,0.00
2016,07,01,02,57,0.00
2016,07,01,02,58,0.00
2016,07,01,02,59,0.00
2016,07,01,03,00,0.00
2016,07,01,03,01,0.00
2016,07,01,03,02,0.00
2016,07,01,03,03,0.00
2016,07,01,03,04,0.00
2016,07,01,03,05,0.00
2016,07,01,03,06,0.00
2016,07,01,03,07,0.00
2016,07,01,03,08,0.00
2016,07,01,03,09,0.00
2016,07,01,03,10,0.00
2016,07,01,03,11,0.00
2016,07,01,03,12,0.00
2016,07,01,03,13,0.00
2016,07,01,03,14,0.00
2016,07,01,03,15,0.00
2016,07,01,03,16,0.00
2016,07,01,03,17,0.00
2016,07,01,03,18,0.00
2016,07,01,03,19,0.00
2016,07,01,03,20,0.00
2016,07,01,03,21,0.00
2016,07,01,03,22,0.00
2016,07,01,03,23,0.00
2016,07,01,03,24,0.00
2016,07,01,03,25,0.00
2016,07,01,03,26,0.00
2016,07,01,03,27,0.00
2016,07,01,03,28,0.00
2016,07,01,03,29,0.00
2016,07,01,03,30,0.00
2016,07,01,03,31,0.00
2016,07,01,03,32,0.00
2016,07,01,03,33,0.00
2016,07,01,03,34,0.00
2016,07,01,03,35,0.00
2016,07,01,03,36,0.00
2016,07,01,03,37,0.00
2016,07,01,03,38,0.00
2016,07,01,03,39,0.00
2016,07,01,03,40,0.00
2016,07,01,03,41,0.00
2016,07,01,03,42,0.00
2016,07,01,03,43,0.00
2016,07,01,03,44,0.00
2016,07,01,03,45,0.00
2016,07,01,03,46,0.00
2016,07,01,03,47,0.00
2016,07,01,03,48,0.00
2016,07,01,03,49,0.00
2016,07,01,03,50,0.00
2016,07,01,03,51,0.00
2016,07,01,03,52,0.00
2016,07,01,03,53,0.00
2016,07,01,03,54,0.00
2016,07,01,03,55,0.00
2016,07,01,03,56,0.00
2016,07,01,03,57,0.00
2016,07,01,03,58,0.00
2016,07,01,03,59,0.00
2016,07,01,04,00,0.00
2016,07,01,04,01,0.00
2016,07,01,04,02,0.00
2016,07,01,04,03,0.00
2016,07,01,04,04,0.00
2016,07,01,04,05,0.00
2016,07,01,04,06,0.00
2016,07,01,04,07,0.00
2016,07,01,04,08,0.00
2016,07,01,04,09,0.00
2016,07,01,04,10,0.00
2016,07,01,04,11,0.00
2016,07,01,04,12,0.00
2016,07,01,04,13,0.00
2016,07,01,04,14,0.00
2016,07,01,04,15,0.00
2016,07,01,04,16,0.00
2016,07,01,04,17,0.00
2016,07,01,04,18,0.00
2016,07,01,04,19,0.00
2016,07,01,04,20,0.00
2016,07,01,04,21,0.00
2016,07,01,04,22,0.00
2016,07,01,04,23,0.00
2016,07,01,04,24,0.00
2016,07,01,04,25,0.00
2016,07,01,04,26,0.00
2016,07,01,04,27,0.00
2016,07,01,04,28,0.00
2016,07,01,04,29,0.00
2016,07,01,04,30,0.00
2016,07,01,04,31,0.00
2016,07,01,04,32,0.00
2016,07,01,04,33,0.00
2016,07,01,04,34,0.00
2016,07,01,04,35,0.00
2016,07,01,04,36,0.00
2016,07,01,04,37,0.00
2016,07,01,04,38,0.00
2016,07,01,04,39,0.00
2016,07,01,04,40,0.00
2016,07,01,04,41,0.00
2016,07,01,04,42,0.00
2016,07,01,04,43,0.00
2016,07,01,04,44,0.00
2016,07,01,04,45,0.00
2016,07,01,04,46,0.00
2016,07,01,04,47,0.00
2016,07,01,04,48,0.00
2016,07,01,04,49,0.00
2016,07,01,04,50,0.00
2016,07,01,04,51,0.00
2016,07,01,04,52,0.00
2016,07,01,04,53,0.00
2016,07,01,04,54,0.00
2016,07,01,04,55,0.00
2016,07,01,04,56,0.00
2016,07,01,04,57,0.00
2016,07,01,04,58,0.00
2016,07,01,04,59,0.00
2016,07,01,05,00,0.00
2016,07,01,05,01,0.00
2016,07,01,05,02,0.00
2016,07,01,05,03,0.00
2016,07,01,05,04,0.00
2016,07,01,05,05,0.00
2016,07,01,05,06,0.00
2016,07,01,05,07,0.00
2016,07,01,05,08,0.00
2016,07,01,05,09,0.00
2016,07,01,05,10,0.00
2016,07,01,05,11,0.00
2016,07,01,05,12,0.00
2016,07,01,05,13,0.00
2016,07,01,05,14,0.00
2016,07,01,05,15,0.00
2016,07,01,05,16,0.00
2016,07,01,05,17,0.00
2016,07,01,05,18,0.00
2016,07,01,05,19,0.00
2016,07,01,05,20,0.00
2016,07,01,05,21,0.00
2016,07,01,05,22,0.00
2016,07,01,05,23,0.00
2016,07,01,05,24,0.00
2016,07,01,05,25,0.00
2016,07,01,05,26,0.00
2016,07,01,05,27,0.00
2016,07,01,05,28,0.00
2016,07,01,05,29,0.00
2016,07,01,05,30,0.00
2016,07,01,05,31,0.00
2016,07,01,05,32,0.00
2016,07,01,05,33,0.00
2016,07,01,05,34,0.00
2016,07,01,05,35,0.00
2016,07,01,05,36,0.00
2016,07,01,05,37,0.00
2016,07,01,05,38,0.00
2016,07,01,05,39,0.00
2016,07,01,05,40,0.00
2016,07,01,05,41,0.00
2016,07,01,05,42,0.00
2016,07,01,05,43,0.00
2016,07,01,05,44,0.00
2016,07,01,05,45,0.00
2016,07,01,05,46,0.00
2016,07,01,05,47,0.00
2016,07,01,05,48,0.00
2016,07,01,05,49,0.00
2016,07,01,05,50,0.00
2016,07,01,05,51,2.50
2016,07,01,05,52,5.00
2016,07,01,05,53,5.00
2016,07,01,05,54,5.00
2016,07,01,05,55,6.40
2016,07,01,05,56,7.00
2016,07,01,05,57,7.00
2016,07,01,05,58,8.60
2016,07,01,05,59,9.00
2016,07,01,06,00,10.80
2016,07,01,06,01,11.00
2016,07,01,06,02,11.00
2016,07,01,06,03,12.00
2016,07,01,06,04,12.00
2016,07,01,06,05,12.30
2016,07,01,06,06,14.00
2016,07,01,06,07,14.00
2016,07,01,06,08,14.50
2016,07,01,06,09,16.00
2016,07,01,06,10,16.00
2016,07,01,06,11,16.80
2016,07,01,06,12,18.00
2016,07,01,06,13,18.00
2016,07,01,06,14,18.00
2016,07,01,06,15,18.50
2016,07,01,06,16,19.00
2016,07,01,06,17,18.40
2016,07,01,06,18,18.00
2016,07,01,06,19,16.60
2016,07,01,06,20,16.00
2016,07,01,06,21,16.00
2016,07,01,06,22,16.00
2016,07,01,06,23,17.80
2016,07,01,06,24,18.00
2016,07,01,06,25,18.00
2016,07,01,06,26,18.00
2016,07,01,06,27,18.00
2016,07,01,06,28,18.00
2016,07,01,06,29,18.00
2016,07,01,06,30,18.00
2016,07,01,06,31,18.20
2016,07,01,06,32,19.00
2016,07,01,06,33,19.00
2016,07,01,06,34,19.80
2016,07,01,06,35,21.00
2016,07,01,06,36,21.00
2016,07,01,06,37,22.10
2016,07,01,06,38,23.00
2016,07,01,06,39,24.20
2016,07,01,06,40,25.60
2016,07,01,06,41,26.00
2016,07,01,06,42,26.00
2016,07,01,06,43,27.60
2016,07,01,06,44,28.00
2016,07,01,06,45,28.00
2016,07,01,06,46,26.30
2016,07,01,06,47,25.10
2016,07,01,06,48,23.00
2016,07,01,06,49,21.00
2016,07,01,06,50,20.80
2016,07,01,06,51,19.00
2016,07,01,06,52,19.00
2016,07,01,06,53,19.50
2016,07,01,06,54,21.00
2016,07,01,06,55,21.00
2016,07,01,06,56,21.70
2016,07,01,06,57,23.00
2016,07,01,06,58,23.80
2016,07,01,06,59,25.00
2016,07,01,07,00,24.00
2016,07,01,07,01,23.00
2016,07,01,07,02,23.00
2016,07,01,07,03,23.00
2016,07,01,07,04,24.30
2016,07,01,07,05,25.00
2016,07,01,07,06,25.70
2016,07,01,07,07,27.60
2016,07,01,07,08,29.70
2016,07,01,07,09,32.50
2016,07,01,07,10,34.80
2016,07,01,07,11,36.90
2016,07,01,07,12,35.00
2016,07,01,07,13,34.80
2016,07,01,07,14,33.00
2016,07,01,07,15,33.00
2016,07,01,07,16,33.00
2016,07,01,07,17,33.50
2016,07,01,07,18,35.00
2016,07,01,07,19,35.70
2016,07,01,07,20,37.00
2016,07,01,07,21,37.00
2016,07,01,07,22,37.00
2016,07,01,07,23,37.00
2016,07,01,07,24,38.00
2016,07,01,07,25,39.00
2016,07,01,07,26,37.80
2016,07,01,07,27,35.70
2016,07,01,07,28,33.60
2016,07,01,07,29,32.20
2016,07,01,07,30,30.40
2016,07,01,07,31,30.00
2016,07,01,07,32,30.00
2016,07,01,07,33,31.90
2016,07,01,07,34,33.00
2016,07,01,07,35,33.10
2016,07,01,07,36,35.00
2016,07,01,07,37,34.80
2016,07,01,07,38,32.80
2016,07,01,07,39,31.50
2016,07,01,07,40,30.00
2016,07,01,07,41,29.40
2016,07,01,07,42,27.30
2016,07,01,07,43,26.00
2016,07,01,07,44,25.60
2016,07,01,07,45,25.50
2016,07,01,07,46,26.00
2016,07,01,07,47,27.10
2016,07,01,07,48,28.00
2016,07,01,07,49,29.20
2016,07,01,07,50,31.30
2016,07,01,07,51,34.10
2016,07,01,07,52,36.50
2016,07,01,07,53,39.40
2016,07,01,07,54,43.40
2016,07,01,07,55,45.80
2016,07,01,07,56,46.90
2016,07,01,07,57,47.00
2016,07,01,07,58,48.90
2016,07,01,07,59,47.00
2016,07,01,08,00,47.00
2016,07,01,08,01,47.00
2016,07,01,08,02,47.40
2016,07,01,08,03,49.00
2016,07,01,08,04,49.00
2016,07,01,08,05,49.00
2016,07,01,08,06,49.00
2016,07,01,08,07,49.00
2016,07,01,08,08,49.00
2016,07,01,08,09,49.00
2016,07,01,08,10,48.00
2016,07,01,08,11,47.00
2016,07,01,08,12,46.40
2016,07,01,08,13,44.70
2016,07,01,08,14,42.60
2016,07,01,08,15,40.50
2016,07,01,08,16,39.20
2016,07,01,08,17,37.30
2016,07,01,08,18,35.20
2016,07,01,08,19,35.00
2016,07,01,08,20,35.00
2016,07,01,08,21,37.10
2016,07,01,08,22,39.30
2016,07,01,08,23,42.30
2016,07,01,08,24,44.00
2016,07,01,08,25,44.50
2016,07,01,08,26,46.20
2016,07,01,08,27,46.80
2016,07,01,08,28,44.70
2016,07,01,08,29,41.20
2016,07,01,08,30,40.00
2016,07,01,08,31,40.00
2016,07,01,08,32,41.00
2016,07,01,08,33,44.20
2016,07,01,08,34,47.80
2016,07,01,08,35,52.20
2016,07,01,08,36,55.30
2016,07,01,08,37,58.80
2016,07,01,08,38,61.50
2016,07,01,08,39,64.40
2016,07,01,08,40,68.40
2016,07,01,08,41,69.90
2016,07,01,08,42,71.90
2016,07,01,08,43,73.90
2016,07,01,08,44,73.80
2016,07,01,08,45,69.70
2016,07,01,08,46,66.40
2016,07,01,08,47,62.00
2016,07,01,08,48,57.00
2016,07,01,08,49,54.00
2016,07,01,08,50,54.60
2016,07,01,08,51,56.00
2016,07,01,08,52,56.80
2016,07,01,08,53,58.00
2016,07,01,08,54,58.90
2016,07,01,08,55,61.00
2016,07,01,08,56,63.70
2016,07,01,08,57,67.40
2016,07,01,08,58,70.90
2016,07,01,08,59,73.30
2016,07,01,09,00,76.10
2016,07,01,09,01,78.50
2016,07,01,09,02,83.00
2016,07,01,09,03,89.10
2016,07,01,09,04,94.50
2016,07,01,09,05,101.30
2016,07,01,09,06,108.70
2016,07,01,09,07,114.20
2016,07,01,09,08,118.00
2016,07,01,09,09,118.30
2016,07,01,09,10,120.00
2016,07,01,09,11,120.20
2016,07,01,09,12,121.50
2016,07,01,09,13,123.00
2016,07,01,09,14,122.30
2016,07,01,09,15,119.80
2016,07,01,09,16,116.30
2016,07,01,09,17,112.60
2016,07,01,09,18,110.10
2016,07,01,09,19,108.00
2016,07,01,09,20,108.20
2016,07,01,09,21,112.10
2016,07,01,09,22,120.00
2016,07,01,09,23,131.40
2016,07,01,09,24,139.40
2016,07,01,09,25,138.00
2016,07,01,09,26,129.40
2016,07,01,09,27,121.70
2016,07,01,09,28,114.70
2016,07,01,09,29,111.20
2016,07,01,09,30,109.00
2016,07,01,09,31,109.20
2016,07,01,09,32,111.40
2016,07,01,09,33,114.80
2016,07,01,09,34,118.40
2016,07,01,09,35,119.50
2016,07,01,09,36,116.80
2016,07,01,09,37,112.90
2016,07,01,09,38,113.00
2016,07,01,09,39,120.10
2016,07,01,09,40,129.50
2016,07,01,09,41,138.50
2016,07,01,09,42,145.30
2016,07,01,09,43,148.60
2016,07,01,09,44,152.60
2016,07,01,09,45,160.20
2016,07,01,09,46,169.30
2016,07,01,09,47,176.50
2016,07,01,09,48,178.00
2016,07,01,09,49,173.20
2016,07,01,09,50,169.40
2016,07,01,09,51,167.20
2016,07,01,09,52,171.80
2016,07,01,09,53,183.60
2016,07,01,09,54,196.20
2016,07,01,09,55,207.90
2016,07,01,09,56,217.10
2016,07,01,09,57,224.20
2016,07,01,09,58,229.80
2016,07,01,09,59,231.40
2016,07,01,10,00,227.60
2016,07,01,10,01,220.20
2016,07,01,10,02,216.00
2016,07,01,10,03,221.20
2016,07,01,10,04,236.50
2016,07,01,10,05,255.40
2016,07,01,10,06,268.20
2016,07,01,10,07,268.50
2016,07,01,10,08,263.80
2016,07,01,10,09,262.00
2016,07,01,10,10,265.80
2016,07,01,10,11,276.60
2016,07,01,10,12,289.40
2016,07,01,10,13,300.10
2016,07,01,10,14,307.30
2016,07,01,10,15,322.20
2016,07,01,10,16,324.40
2016,07,01,10,17,313.00
2016,07,01,10,18,316.80
2016,07,01,10,19,341.80
2016,07,01,10,20,368.20
2016,07,01,10,21,373.20
2016,07,01,10,22,323.00
2016,07,01,10,23,313.40
2016,07,01,10,24,323.00
2016,07,01,10,25,539.80
2016,07,01,10,26,865.00
2016,07,01,10,27,648.50
2016,07,01,10,28,432.00
2016,07,01,10,29,432.00
2016,07,01,10,30,432.00
2016,07,01,10,31,564.00
2016,07,01,10,32,635.00
2016,07,01,10,33,635.00
2016,07,01,10,34,500.00
2016,07,01,10,35,511.00
2016,07,01,10,36,522.00
2016,07,01,10,37,697.50
2016,07,01,10,38,672.30
2016,07,01,10,39,657.40
2016,07,01,10,40,424.90
2016,07,01,10,41,488.30
2016,07,01,10,42,493.00
2016,07,01,10,43,451.60
2016,07,01,10,44,422.00
2016,07,01,10,45,422.00
2016,07,01,10,46,422.00
2016,07,01,10,47,558.50
2016,07,01,10,48,812.00
2016,07,01,10,49,734.60
2016,07,01,10,50,640.00
2016,07,01,10,51,566.30
2016,07,01,10,52,451.40
2016,07,01,10,53,398.80
2016,07,01,10,54,390.00
2016,07,01,10,55,527.90
2016,07,01,10,56,530.80
2016,07,01,10,57,535.20
2016,07,01,10,58,467.00
2016,07,01,10,59,499.00
2016,07,01,11,00,537.30
2016,07,01,11,01,553.30
2016,07,01,11,02,633.00
2016,07,01,11,03,633.00
2016,07,01,11,04,633.00
2016,07,01,11,05,659.80
2016,07,01,11,06,812.00
2016,07,01,11,07,753.50
2016,07,01,11,08,587.00
2016,07,01,11,09,582.10
2016,07,01,11,10,520.00
2016,07,01,11,11,496.10
2016,07,01,11,12,502.00
2016,07,01,11,13,501.50
2016,07,01,11,14,481.80
2016,07,01,11,15,479.80
2016,07,01,11,16,478.50
2016,07,01,11,17,480.20
2016,07,01,11,18,486.90
2016,07,01,11,19,491.20
2016,07,01,11,20,516.00
2016,07,01,11,21,537.30
2016,07,01,11,22,504.90
2016,07,01,11,23,501.00
2016,07,01,11,24,562.90
2016,07,01,11,25,490.00
2016,07,01,11,26,545.10
2016,07,01,11,27,519.00
2016,07,01,11,28,519.00
2016,07,01,11,29,519.00
2016,07,01,11,30,519.00
2016,07,01,11,31,520.50
2016,07,01,11,32,532.40
2016,07,01,11,33,548.00
2016,07,01,11,34,636.30
2016,07,01,11,35,754.00
2016,07,01,11,36,754.00
2016,07,01,11,37,754.00
2016,07,01,11,38,704.20
2016,07,01,11,39,671.00
2016,07,01,11,40,819.80
2016,07,01,11,41,838.00
2016,07,01,11,42,807.00
2016,07,01,11,43,880.90
2016,07,01,11,44,859.00
2016,07,01,11,45,894.30
2016,07,01,11,46,908.30
2016,07,01,11,47,909.00
2016,07,01,11,48,908.10
2016,07,01,11,49,887.90
2016,07,01,11,50,861.00
2016,07,01,11,51,867.00
2016,07,01,11,52,865.20
2016,07,01,11,53,857.50
2016,07,01,11,54,857.50
2016,07,01,11,55,860.70
2016,07,01,11,56,858.40
2016,07,01,11,57,857.60
2016,07,01,11,58,860.50
2016,07,01,11,59,861.00
2016,07,01,12,00,863.00
2016,07,01,12,01,865.00
2016,07,01,12,02,863.80
2016,07,01,12,03,849.30
2016,07,01,12,04,844.70
2016,07,01,12,05,859.60
2016,07,01,12,06,867.40
2016,07,01,12,07,846.10
2016,07,01,12,08,854.00
2016,07,01,12,09,820.90
2016,07,01,12,10,730.50
2016,07,01,12,11,801.30
2016,07,01,12,12,789.00
2016,07,01,12,13,789.00
2016,07,01,12,14,809.50
2016,07,01,12,15,927.40
2016,07,01,12,16,942.00
2016,07,01,12,17,969.00
2016,07,01,12,18,969.00
2016,07,01,12,19,955.30
2016,07,01,12,20,961.80
2016,07,01,12,21,986.70
2016,07,01,12,22,965.90
2016,07,01,12,23,938.50
2016,07,01,12,24,910.80
2016,07,01,12,25,901.40
2016,07,01,12,26,895.30
2016,07,01,12,27,898.00
2016,07,01,12,28,897.00
2016,07,01,12,29,869.60
2016,07,01,12,30,812.00
2016,07,01,12,31,867.70
2016,07,01,12,32,870.90
2016,07,01,12,33,887.10
2016,07,01,12,34,887.20
2016,07,01,12,35,872.90
2016,07,01,12,36,884.50
2016,07,01,12,37,905.40
2016,07,01,12,38,908.40
2016,07,01,12,39,898.50
2016,07,01,12,40,900.00
2016,07,01,12,41,893.30
2016,07,01,12,42,897.80
2016,07,01,12,43,913.50
2016,07,01,12,44,889.80
2016,07,01,12,45,863.60
2016,07,01,12,46,810.30
2016,07,01,12,47,791.30
2016,07,01,12,48,839.70
2016,07,01,12,49,870.00
2016,07,01,12,50,900.90
2016,07,01,12,51,938.40
2016,07,01,12,52,903.20
2016,07,01,12,53,866.20
2016,07,01,12,54,843.00
2016,07,01,12,55,907.00
2016,07,01,12,56,949.20
2016,07,01,12,57,951.00
2016,07,01,12,58,947.30
2016,07,01,12,59,914.00
2016,07,01,13,00,914.00
2016,07,01,13,01,914.00
2016,07,01,13,02,914.00
2016,07,01,13,03,914.00
2016,07,01,13,04,914.00
2016,07,01,13,05,756.00
2016,07,01,13,06,519.00
2016,07,01,13,07,519.00
2016,07,01,13,08,519.00
2016,07,01,13,09,519.00
2016,07,01,13,10,888.90
2016,07,01,13,11,1158.00
2016,07,01,13,12,945.20
2016,07,01,13,13,918.40
2016,07,01,13,14,963.20
2016,07,01,13,15,987.30
2016,07,01,13,16,993.00
2016,07,01,13,17,579.00
2016,07,01,13,18,514.10
2016,07,01,13,19,539.70
2016,07,01,13,20,547.00
2016,07,01,13,21,547.00
2016,07,01,13,22,575.80
2016,07,01,13,23,835.00
2016,07,01,13,24,835.00
2016,07,01,13,25,815.00
2016,07,01,13,26,751.00
2016,07,01,13,27,733.00
2016,07,01,13,28,677.70
2016,07,01,13,29,639.30
2016,07,01,13,30,617.00
2016,07,01,13,31,617.00
2016,07,01,13,32,573.00
2016,07,01,13,33,535.90
2016,07,01,13,34,565.20
2016,07,01,13,35,582.00
2016,07,01,13,36,470.00
2016,07,01,13,37,401.00
2016,07,01,13,38,378.00
2016,07,01,13,39,363.80
2016,07,01,13,40,353.50
2016,07,01,13,41,339.30
2016,07,01,13,42,329.50
2016,07,01,13,43,323.00
2016,07,01,13,44,317.70
2016,07,01,13,45,315.00
2016,07,01,13,46,314.70
2016,07,01,13,47,314.70
2016,07,01,13,48,319.50
2016,07,01,13,49,316.60
2016,07,01,13,50,312.30
2016,07,01,13,51,337.00
2016,07,01,13,52,376.00
2016,07,01,13,53,557.80
2016,07,01,13,54,780.00
2016,07,01,13,55,821.90
2016,07,01,13,56,899.60
2016,07,01,13,57,871.40
2016,07,01,13,58,829.00
2016,07,01,13,59,823.00
2016,07,01,14,00,823.00
2016,07,01,14,01,823.00
2016,07,01,14,02,823.00
2016,07,01,14,03,943.00
2016,07,01,14,04,963.00
2016,07,01,14,05,963.00
2016,07,01,14,06,963.00
2016,07,01,14,07,930.70
2016,07,01,14,08,640.00
2016,07,01,14,09,664.20
2016,07,01,14,10,761.00
2016,07,01,14,11,761.00
2016,07,01,14,12,761.00
2016,07,01,14,13,761.00
2016,07,01,14,14,869.50
2016,07,01,14,15,1062.90
2016,07,01,14,16,1054.40
2016,07,01,14,17,1089.50
2016,07,01,14,18,1120.40
2016,07,01,14,19,1118.00
2016,07,01,14,20,1089.50
2016,07,01,14,21,1030.00
2016,07,01,14,22,984.50
2016,07,01,14,23,979.20
2016,07,01,14,24,968.80
2016,07,01,14,25,968.20
2016,07,01,14,26,949.30
2016,07,01,14,27,961.20
2016,07,01,14,28,995.30
2016,07,01,14,29,989.00
2016,07,01,14,30,952.20
2016,07,01,14,31,1014.00
2016,07,01,14,32,1014.00
2016,07,01,14,33,1007.50
2016,07,01,14,34,985.00
2016,07,01,14,35,991.00
2016,07,01,14,36,991.00
2016,07,01,14,37,983.00
2016,07,01,14,38,980.80
2016,07,01,14,39,988.00
2016,07,01,14,40,970.50
2016,07,01,14,41,965.00
2016,07,01,14,42,814.30
2016,07,01,14,43,638.40
2016,07,01,14,44,606.00
2016,07,01,14,45,393.20
2016,07,01,14,46,371.00
2016,07,01,14,47,394.00
2016,07,01,14,48,394.00
2016,07,01,14,49,563.70
2016,07,01,14,50,501.50
2016,07,01,14,51,492.00
2016,07,01,14,52,408.00
2016,07,01,14,53,444.70
2016,07,01,14,54,775.00
2016,07,01,14,55,809.20
2016,07,01,14,56,946.00
2016,07,01,14,57,922.20
2016,07,01,14,58,851.00
2016,07,01,14,59,851.00
2016,07,01,15,00,915.10
2016,07,01,15,01,1040.20
2016,07,01,15,02,1063.00
2016,07,01,15,03,984.00
2016,07,01,15,04,905.00
2016,07,01,15,05,905.00
2016,07,01,15,06,905.00
2016,07,01,15,07,905.00
2016,07,01,15,08,905.00
2016,07,01,15,09,905.00
2016,07,01,15,10,593.00
2016,07,01,15,11,483.40
2016,07,01,15,12,476.00
2016,07,01,15,13,476.00
2016,07,01,15,14,476.00
2016,07,01,15,15,476.00
2016,07,01,15,16,476.00
2016,07,01,15,17,466.90
2016,07,01,15,18,385.70
2016,07,01,15,19,390.00
2016,07,01,15,20,390.00
2016,07,01,15,21,390.00
2016,07,01,15,22,406.30
2016,07,01,15,23,425.30
2016,07,01,15,24,405.00
2016,07,01,15,25,418.80
2016,07,01,15,26,406.80
2016,07,01,15,27,384.40
2016,07,01,15,28,403.50
2016,07,01,15,29,426.80
2016,07,01,15,30,420.70
2016,07,01,15,31,410.90
2016,07,01,15,32,459.50
2016,07,01,15,33,475.80
2016,07,01,15,34,476.00
2016,07,01,15,35,476.00
2016,07,01,15,36,476.00
2016,07,01,15,37,356.30
2016,07,01,15,38,353.40
2016,07,01,15,39,379.30
2016,07,01,15,40,364.00
2016,07,01,15,41,364.00
2016,07,01,15,42,364.40
2016,07,01,15,43,373.10
2016,07,01,15,44,399.70
2016,07,01,15,45,391.70
2016,07,01,15,46,353.90
2016,07,01,15,47,352.40
2016,07,01,15,48,354.70
2016,07,01,15,49,368.40
2016,07,01,15,50,362.60
2016,07,01,15,51,346.00
2016,07,01,15,52,346.00
2016,07,01,15,53,346.00
2016,07,01,15,54,352.60
2016,07,01,15,55,310.00
2016,07,01,15,56,277.60
2016,07,01,15,57,265.60
2016,07,01,15,58,258.00
2016,07,01,15,59,251.60
2016,07,01,16,00,250.10
2016,07,01,16,01,251.40
2016,07,01,16,02,260.40
2016,07,01,16,03,266.70
2016,07,01,16,04,262.60
2016,07,01,16,05,252.70
2016,07,01,16,06,241.20
2016,07,01,16,07,236.80
2016,07,01,16,08,239.60
2016,07,01,16,09,242.80
2016,07,01,16,10,249.90
2016,07,01,16,11,259.00
2016,07,01,16,12,266.40
2016,07,01,16,13,270.50
2016,07,01,16,14,270.40
2016,07,01,16,15,264.70
2016,07,01,16,16,256.00
2016,07,01,16,17,251.60
2016,07,01,16,18,251.00
2016,07,01,16,19,250.20
2016,07,01,16,20,250.00
2016,07,01,16,21,246.60
2016,07,01,16,22,254.60
2016,07,01,16,23,255.00
2016,07,01,16,24,256.90
2016,07,01,16,25,292.00
2016,07,01,16,26,291.30
2016,07,01,16,27,283.00
2016,07,01,16,28,272.00
2016,07,01,16,29,273.80
2016,07,01,16,30,273.20
2016,07,01,16,31,248.70
2016,07,01,16,32,248.60
2016,07,01,16,33,256.90
2016,07,01,16,34,261.10
2016,07,01,16,35,257.50
2016,07,01,16,36,255.00
2016,07,01,16,37,256.70
2016,07,01,16,38,264.90
2016,07,01,16,39,275.50
2016,07,01,16,40,284.60
2016,07,01,16,41,287.00
2016,07,01,16,42,289.30
2016,07,01,16,43,306.00
2016,07,01,16,44,343.90
2016,07,01,16,45,413.00
2016,07,01,16,46,373.50
2016,07,01,16,47,371.00
2016,07,01,16,48,378.50
2016,07,01,16,49,450.60
2016,07,01,16,50,475.70
2016,07,01,16,51,415.00
2016,07,01,16,52,415.00
2016,07,01,16,53,415.00
2016,07,01,16,54,415.00
2016,07,01,16,55,381.80
2016,07,01,16,56,323.60
2016,07,01,16,57,359.80
2016,07,01,16,58,439.30
2016,07,01,16,59,480.00
2016,07,01,17,00,415.40
2016,07,01,17,01,336.10
2016,07,01,17,02,318.00
2016,07,01,17,03,318.00
2016,07,01,17,04,417.00
2016,07,01,17,05,370.00
2016,07,01,17,06,330.50
2016,07,01,17,07,327.00
2016,07,01,17,08,327.00
2016,07,01,17,09,251.90
2016,07,01,17,10,243.30
2016,07,01,17,11,250.10
2016,07,01,17,12,254.00
2016,07,01,17,13,261.40